Year,Month,Day,Hour,Minute,Value (Times are PST for insolation in W/m^2)
2020,03,01,00,00,0.00
2020,03,01,00,01,0.00
2020,03,01,00,02,0.00
2020,03,01,00,03,0.00
2020,03,01,00,04,0.00
2020,03,01,00,05,0.00
2020,03,01,00,06,0.00
2020,03,01,00,07,0.00
2020,03,01,00,08,0.00
2020,03,01,00,09,0.00
2020,03,01,00,10,0.00
2020,03,01,00,11,0.00
2020,03,01,00,12,0.00
2020,03,01,00,13,0.00
2020,03,01,00,14,0.00
2020,03,01,00,15,0.00
2020,03,01,00,16,0.00
2020,03,01,00,17,0.00
2020,03,01,00,18,0.00
2020,03,01,00,19,0.00
2020,03,01,00,20,0.00
2020,03,01,00,21,0.00
2020,03,01,00,22,0.00
2020,03,01,00,23,0.00
2020,03,01,00,24,0.00
2020,03,01,00,25,0.00
2020,03,01,00,26,0.00
2020,03,01,00,27,0.00
2020,03,01,00,28,0.00
2020,03,01,00,29,0.00
2020,03,01,00,30,0.00
2020,03,01,00,31,0.00
2020,03,01,00,32,0.00
2020,03,01,00,33,0.00
2020,03,01,00,34,0.00
2020,03,01,00,35,0.00
2020,03,01,00,36,0.00
2020,03,01,00,37,0.00
2020,03,01,00,38,0.00
2020,03,01,00,39,0.00
2020,03,01,00,40,0.00
2020,03,01,00,41,0.00
2020,03,01,00,42,0.00
2020,03,01,00,43,0.00
2020,03,01,00,44,0.00
2020,03,01,00,45,0.00
2020,03,01,00,46,0.00
2020,03,01,00,47,0.00
2020,03,01,00,48,0.00
2020,03,01,00,49,0.00
2020,03,01,00,50,0.00
2020,03,01,00,51,0.00
2020,03,01,00,52,0.00
2020,03,01,00,53,0.00
2020,03,01,00,54,0.00
2020,03,01,00,55,0.00
2020,03,01,00,56,0.00
2020,03,01,00,57,0.00
2020,03,01,00,58,0.00
2020,03,01,00,59,0.00
2020,03,01,01,00,0.00
2020,03,01,01,01,0.00
2020,03,01,01,02,0.00
2020,03,01,01,03,0.00
2020,03,01,01,04,0.00
2020,03,01,01,05,0.00
2020,03,01,01,06,0.00
2020,03,01,01,07,0.00
2020,03,01,01,08,0.00
2020,03,01,01,09,0.00
2020,03,01,01,10,0.00
2020,03,01,01,11,0.00
2020,03,01,01,12,0.00
2020,03,01,01,13,0.00
2020,03,01,01,14,0.00
2020,03,01,01,15,0.00
2020,03,01,01,16,0.00
2020,03,01,01,17,0.00
2020,03,01,01,18,0.00
2020,03,01,01,19,0.00
2020,03,01,01,20,0.00
2020,03,01,01,21,0.00
2020,03,01,01,22,0.00
2020,03,01,01,23,0.00
2020,03,01,01,24,0.00
2020,03,01,01,25,0.00
2020,03,01,01,26,0.00
2020,03,01,01,27,0.00
2020,03,01,01,28,0.00
2020,03,01,01,29,0.00
2020,03,01,01,30,0.00
2020,03,01,01,31,0.00
2020,03,01,01,32,0.00
2020,03,01,01,33,0.00
2020,03,01,01,34,0.00
2020,03,01,01,35,0.00
2020,03,01,01,36,0.00
2020,03,01,01,37,0.00
2020,03,01,01,38,0.00
2020,03,01,01,39,0.00
2020,03,01,01,40,0.00
2020,03,01,01,41,0.00
2020,03,01,01,42,0.00
2020,03,01,01,43,0.00
2020,03,01,01,44,0.00
2020,03,01,01,45,0.00
2020,03,01,01,46,0.00
2020,03,01,01,47,0.00
2020,03,01,01,48,0.00
2020,03,01,01,49,0.00
2020,03,01,01,50,0.00
2020,03,01,01,51,0.00
2020,03,01,01,52,0.00
2020,03,01,01,53,0.00
2020,03,01,01,54,0.00
2020,03,01,01,55,0.00
2020,03,01,01,56,0.00
2020,03,01,01,57,0.00
2020,03,01,01,58,0.00
2020,03,01,01,59,0.00
2020,03,01,02,00,0.00
2020,03,01,02,01,0.00
2020,03,01,02,02,0.00
2020,03,01,02,03,0.00
2020,03,01,02,04,0.00
2020,03,01,02,05,0.00
2020,03,01,02,06,0.00
2020,03,01,02,07,0.00
2020,03,01,02,08,0.00
2020,03,01,02,09,0.00
2020,03,01,02,10,0.00
2020,03,01,02,11,0.00
2020,03,01,02,12,0.00
2020,03,01,02,13,0.00
2020,03,01,02,14,0.00
2020,03,01,02,15,0.00
2020,03,01,02,16,0.00
2020,03,01,02,17,0.00
2020,03,01,02,18,0.00
2020,03,01,02,19,0.00
2020,03,01,02,20,0.00
2020,03,01,02,21,0.00
2020,03,01,02,22,0.00
2020,03,01,02,23,0.00
2020,03,01,02,24,0.00
2020,03,01,02,25,0.00
2020,03,01,02,26,0.00
2020,03,01,02,27,0.00
2020,03,01,02,28,0.00
2020,03,01,02,29,0.00
2020,03,01,02,30,0.00
2020,03,01,02,31,0.00
2020,03,01,02,32,0.00
2020,03,01,02,33,0.00
2020,03,01,02,34,0.00
2020,03,01,02,35,0.00
2020,03,01,02,36,0.00
2020,03,01,02,37,0.00
2020,03,01,02,38,0.00
2020,03,01,02,39,0.00
2020,03,01,02,40,0.00
2020,03,01,02,41,0.00
2020,03,01,02,42,0.00
2020,03,01,02,43,0.00
2020,03,01,02,44,0.00
2020,03,01,02,45,0.00
2020,03,01,02,46,0.00
2020,03,01,02,47,0.00
2020,03,01,02,48,0.00
2020,03,01,02,49,0.00
2020,03,01,02,50,0.00
2020,03,01,02,51,0.00
2020,03,01,02,52,0.00
2020,03,01,02,53,0.00
2020,03,01,02,54,0.00
2020,03,01,02,55,0.00
2020,03,01,02,56,0.00
2020,03,01,02,57,0.00
2020,03,01,02,58,0.00
2020,03,01,02,59,0.00
2020,03,01,03,00,0.00
2020,03,01,03,01,0.00
2020,03,01,03,02,0.00
2020,03,01,03,03,0.00
2020,03,01,03,04,0.00
2020,03,01,03,05,0.00
2020,03,01,03,06,0.00
2020,03,01,03,07,0.00
2020,03,01,03,08,0.00
2020,03,01,03,09,0.00
2020,03,01,03,10,0.00
2020,03,01,03,11,0.00
2020,03,01,03,12,0.00
2020,03,01,03,13,0.00
2020,03,01,03,14,0.00
2020,03,01,03,15,0.00
2020,03,01,03,16,0.00
2020,03,01,03,17,0.00
2020,03,01,03,18,0.00
2020,03,01,03,19,0.00
2020,03,01,03,20,0.00
2020,03,01,03,21,0.00
2020,03,01,03,22,0.00
2020,03,01,03,23,0.00
2020,03,01,03,24,0.00
2020,03,01,03,25,0.00
2020,03,01,03,26,0.00
2020,03,01,03,27,0.00
2020,03,01,03,28,0.00
2020,03,01,03,29,0.00
2020,03,01,03,30,0.00
2020,03,01,03,31,0.00
2020,03,01,03,32,0.00
2020,03,01,03,33,0.00
2020,03,01,03,34,0.00
2020,03,01,03,35,0.00
2020,03,01,03,36,0.00
2020,03,01,03,37,0.00
2020,03,01,03,38,0.00
2020,03,01,03,39,0.00
2020,03,01,03,40,0.00
2020,03,01,03,41,0.00
2020,03,01,03,42,0.00
2020,03,01,03,43,0.00
2020,03,01,03,44,0.00
2020,03,01,03,45,0.00
2020,03,01,03,46,0.00
2020,03,01,03,47,0.00
2020,03,01,03,48,0.00
2020,03,01,03,49,0.00
2020,03,01,03,50,0.00
2020,03,01,03,51,0.00
2020,03,01,03,52,0.00
2020,03,01,03,53,0.00
2020,03,01,03,54,0.00
2020,03,01,03,55,0.00
2020,03,01,03,56,0.00
2020,03,01,03,57,0.00
2020,03,01,03,58,0.00
2020,03,01,03,59,0.00
2020,03,01,04,00,0.00
2020,03,01,04,01,0.00
2020,03,01,04,02,0.00
2020,03,01,04,03,0.00
2020,03,01,04,04,0.00
2020,03,01,04,05,0.00
2020,03,01,04,06,0.00
2020,03,01,04,07,0.00
2020,03,01,04,08,0.00
2020,03,01,04,09,0.00
2020,03,01,04,10,0.00
2020,03,01,04,11,0.00
2020,03,01,04,12,0.00
2020,03,01,04,13,0.00
2020,03,01,04,14,0.00
2020,03,01,04,15,0.00
2020,03,01,04,16,0.00
2020,03,01,04,17,0.00
2020,03,01,04,18,0.00
2020,03,01,04,19,0.00
2020,03,01,04,20,0.00
2020,03,01,04,21,0.00
2020,03,01,04,22,0.00
2020,03,01,04,23,0.00
2020,03,01,04,24,0.00
2020,03,01,04,25,0.00
2020,03,01,04,26,0.00
2020,03,01,04,27,0.00
2020,03,01,04,28,0.00
2020,03,01,04,29,0.00
2020,03,01,04,30,0.00
2020,03,01,04,31,0.00
2020,03,01,04,32,0.00
2020,03,01,04,33,0.00
2020,03,01,04,34,0.00
2020,03,01,04,35,0.00
2020,03,01,04,36,0.00
2020,03,01,04,37,0.00
2020,03,01,04,38,0.00
2020,03,01,04,39,0.00
2020,03,01,04,40,0.00
2020,03,01,04,41,0.00
2020,03,01,04,42,0.00
2020,03,01,04,43,0.00
2020,03,01,04,44,0.00
2020,03,01,04,45,0.00
2020,03,01,04,46,0.00
2020,03,01,04,47,0.00
2020,03,01,04,48,0.00
2020,03,01,04,49,0.00
2020,03,01,04,50,0.00
2020,03,01,04,51,0.00
2020,03,01,04,52,0.00
2020,03,01,04,53,0.00
2020,03,01,04,54,0.00
2020,03,01,04,55,0.00
2020,03,01,04,56,0.00
2020,03,01,04,57,0.00
2020,03,01,04,58,0.00
2020,03,01,04,59,0.00
2020,03,01,05,00,0.00
2020,03,01,05,01,0.00
2020,03,01,05,02,0.00
2020,03,01,05,03,0.00
2020,03,01,05,04,0.00
2020,03,01,05,05,0.00
2020,03,01,05,06,0.00
2020,03,01,05,07,0.00
2020,03,01,05,08,0.00
2020,03,01,05,09,0.00
2020,03,01,05,10,0.00
2020,03,01,05,11,0.00
2020,03,01,05,12,0.00
2020,03,01,05,13,0.00
2020,03,01,05,14,0.00
2020,03,01,05,15,0.00
2020,03,01,05,16,0.00
2020,03,01,05,17,0.00
2020,03,01,05,18,0.00
2020,03,01,05,19,0.00
2020,03,01,05,20,0.00
2020,03,01,05,21,0.00
2020,03,01,05,22,0.00
2020,03,01,05,23,0.00
2020,03,01,05,24,0.00
2020,03,01,05,25,0.00
2020,03,01,05,26,0.00
2020,03,01,05,27,0.00
2020,03,01,05,28,0.00
2020,03,01,05,29,0.00
2020,03,01,05,30,0.00
2020,03,01,05,31,0.00
2020,03,01,05,32,0.00
2020,03,01,05,33,0.00
2020,03,01,05,34,0.00
2020,03,01,05,35,0.00
2020,03,01,05,36,0.00
2020,03,01,05,37,0.00
2020,03,01,05,38,0.00
2020,03,01,05,39,0.00
2020,03,01,05,40,0.00
2020,03,01,05,41,0.00
2020,03,01,05,42,0.00
2020,03,01,05,43,0.00
2020,03,01,05,44,0.00
2020,03,01,05,45,0.00
2020,03,01,05,46,0.00
2020,03,01,05,47,0.00
2020,03,01,05,48,0.00
2020,03,01,05,49,0.00
2020,03,01,05,50,0.00
2020,03,01,05,51,0.00
2020,03,01,05,52,0.00
2020,03,01,05,53,0.00
2020,03,01,05,54,0.00
2020,03,01,05,55,0.00
2020,03,01,05,56,0.00
2020,03,01,05,57,0.00
2020,03,01,05,58,0.00
2020,03,01,05,59,0.00
2020,03,01,06,00,0.00
2020,03,01,06,01,0.00
2020,03,01,06,02,0.00
2020,03,01,06,03,0.00
2020,03,01,06,04,0.00
2020,03,01,06,05,0.00
2020,03,01,06,06,0.00
2020,03,01,06,07,0.00
2020,03,01,06,08,0.00
2020,03,01,06,09,0.00
2020,03,01,06,10,0.00
2020,03,01,06,11,0.00
2020,03,01,06,12,0.00
2020,03,01,06,13,0.00
2020,03,01,06,14,0.00
2020,03,01,06,15,0.00
2020,03,01,06,16,0.00
2020,03,01,06,17,0.00
2020,03,01,06,18,0.00
2020,03,01,06,19,0.00
2020,03,01,06,20,0.00
2020,03,01,06,21,0.00
2020,03,01,06,22,0.00
2020,03,01,06,23,0.00
2020,03,01,06,24,0.00
2020,03,01,06,25,0.00
2020,03,01,06,26,0.00
2020,03,01,06,27,0.00
2020,03,01,06,28,0.00
2020,03,01,06,29,0.00
2020,03,01,06,30,0.00
2020,03,01,06,31,0.00
2020,03,01,06,32,0.00
2020,03,01,06,33,0.00
2020,03,01,06,34,0.00
2020,03,01,06,35,0.00
2020,03,01,06,36,0.00
2020,03,01,06,37,0.00
2020,03,01,06,38,0.00
2020,03,01,06,39,0.00
2020,03,01,06,40,0.00
2020,03,01,06,41,0.00
2020,03,01,06,42,0.00
2020,03,01,06,43,0.00
2020,03,01,06,44,0.00
2020,03,01,06,45,0.00
2020,03,01,06,46,0.00
2020,03,01,06,47,0.00
2020,03,01,06,48,0.00
2020,03,01,06,49,0.00
2020,03,01,06,50,0.00
2020,03,01,06,51,0.00
2020,03,01,06,52,0.00
2020,03,01,06,53,0.00
2020,03,01,06,54,0.00
2020,03,01,06,55,0.00
2020,03,01,06,56,2.50
2020,03,01,06,57,5.00
2020,03,01,06,58,5.00
2020,03,01,06,59,5.00
2020,03,01,07,00,7.00
2020,03,01,07,01,7.00
2020,03,01,07,02,7.00
2020,03,01,07,03,8.00
2020,03,01,07,04,9.00
2020,03,01,07,05,10.50
2020,03,01,07,06,11.00
2020,03,01,07,07,12.00
2020,03,01,07,08,12.50
2020,03,01,07,09,14.00
2020,03,01,07,10,15.00
2020,03,01,07,11,17.20
2020,03,01,07,12,18.70
2020,03,01,07,13,20.80
2020,03,01,07,14,23.10
2020,03,01,07,15,25.20
2020,03,01,07,16,26.00
2020,03,01,07,17,27.00
2020,03,01,07,18,28.00
2020,03,01,07,19,29.50
2020,03,01,07,20,31.70
2020,03,01,07,21,33.50
2020,03,01,07,22,37.70
2020,03,01,07,23,41.50
2020,03,01,07,24,45.50
2020,03,01,07,25,50.80
2020,03,01,07,26,55.20
2020,03,01,07,27,59.50
2020,03,01,07,28,63.40
2020,03,01,07,29,67.50
2020,03,01,07,30,69.30
2020,03,01,07,31,71.00
2020,03,01,07,32,72.00
2020,03,01,07,33,72.00
2020,03,01,07,34,70.20
2020,03,01,07,35,68.40
2020,03,01,07,36,64.50
2020,03,01,07,37,62.60
2020,03,01,07,38,62.00
2020,03,01,07,39,62.00
2020,03,01,07,40,62.70
2020,03,01,07,41,62.10
2020,03,01,07,42,62.10
2020,03,01,07,43,63.50
2020,03,01,07,44,65.00
2020,03,01,07,45,65.00
2020,03,01,07,46,63.80
2020,03,01,07,47,60.80
2020,03,01,07,48,58.20
2020,03,01,07,49,62.60
2020,03,01,07,50,67.00
2020,03,01,07,51,65.30
2020,03,01,07,52,61.00
2020,03,01,07,53,60.00
2020,03,01,07,54,60.00
2020,03,01,07,55,60.00
2020,03,01,07,56,57.80
2020,03,01,07,57,55.50
2020,03,01,07,58,53.70
2020,03,01,07,59,52.00
2020,03,01,08,00,49.80
2020,03,01,08,01,47.50
2020,03,01,08,02,47.00
2020,03,01,08,03,46.00
2020,03,01,08,04,46.00
2020,03,01,08,05,46.30
2020,03,01,08,06,47.00
2020,03,01,08,07,48.20
2020,03,01,08,08,47.50
2020,03,01,08,09,47.00
2020,03,01,08,10,49.20
2020,03,01,08,11,51.50
2020,03,01,08,12,54.20
2020,03,01,08,13,58.00
2020,03,01,08,14,65.90
2020,03,01,08,15,76.70
2020,03,01,08,16,82.50
2020,03,01,08,17,85.30
2020,03,01,08,18,97.70
2020,03,01,08,19,109.10
2020,03,01,08,20,113.50
2020,03,01,08,21,116.50
2020,03,01,08,22,120.20
2020,03,01,08,23,126.30
2020,03,01,08,24,134.30
2020,03,01,08,25,137.90
2020,03,01,08,26,144.00
2020,03,01,08,27,149.00
2020,03,01,08,28,148.40
2020,03,01,08,29,151.70
2020,03,01,08,30,151.30
2020,03,01,08,31,138.40
2020,03,01,08,32,132.20
2020,03,01,08,33,126.20
2020,03,01,08,34,124.00
2020,03,01,08,35,123.00
2020,03,01,08,36,120.80
2020,03,01,08,37,113.80
2020,03,01,08,38,107.00
2020,03,01,08,39,106.30
2020,03,01,08,40,104.40
2020,03,01,08,41,106.00
2020,03,01,08,42,107.00
2020,03,01,08,43,107.00
2020,03,01,08,44,110.40
2020,03,01,08,45,114.70
2020,03,01,08,46,121.80
2020,03,01,08,47,133.90
2020,03,01,08,48,155.50
2020,03,01,08,49,171.40
2020,03,01,08,50,184.20
2020,03,01,08,51,188.00
2020,03,01,08,52,215.80
2020,03,01,08,53,228.70
2020,03,01,08,54,226.90
2020,03,01,08,55,244.00
2020,03,01,08,56,264.80
2020,03,01,08,57,275.70
2020,03,01,08,58,268.30
2020,03,01,08,59,251.40
2020,03,01,09,00,227.70
2020,03,01,09,01,185.60
2020,03,01,09,02,172.50
2020,03,01,09,03,163.90
2020,03,01,09,04,162.00
2020,03,01,09,05,158.60
2020,03,01,09,06,158.50
2020,03,01,09,07,162.70
2020,03,01,09,08,166.50
2020,03,01,09,09,171.50
2020,03,01,09,10,177.10
2020,03,01,09,11,184.20
2020,03,01,09,12,191.30
2020,03,01,09,13,193.50
2020,03,01,09,14,198.30
2020,03,01,09,15,203.40
2020,03,01,09,16,205.00
2020,03,01,09,17,202.70
2020,03,01,09,18,203.50
2020,03,01,09,19,211.70
2020,03,01,09,20,227.80
2020,03,01,09,21,229.30
2020,03,01,09,22,217.90
2020,03,01,09,23,219.50
2020,03,01,09,24,222.10
2020,03,01,09,25,211.80
2020,03,01,09,26,241.90
2020,03,01,09,27,246.00
2020,03,01,09,28,241.60
2020,03,01,09,29,223.20
2020,03,01,09,30,204.50
2020,03,01,09,31,189.50
2020,03,01,09,32,163.80
2020,03,01,09,33,149.80
2020,03,01,09,34,136.40
2020,03,01,09,35,131.50
2020,03,01,09,36,130.00
2020,03,01,09,37,130.00
2020,03,01,09,38,130.00
2020,03,01,09,39,131.50
2020,03,01,09,40,133.70
2020,03,01,09,41,135.30
2020,03,01,09,42,137.00
2020,03,01,09,43,136.30
2020,03,01,09,44,134.50
2020,03,01,09,45,132.80
2020,03,01,09,46,130.50
2020,03,01,09,47,130.00
2020,03,01,09,48,130.00
2020,03,01,09,49,130.00
2020,03,01,09,50,130.70
2020,03,01,09,51,132.00
2020,03,01,09,52,132.00
2020,03,01,09,53,132.00
2020,03,01,09,54,132.00
2020,03,01,09,55,132.00
2020,03,01,09,56,132.00
2020,03,01,09,57,131.30
2020,03,01,09,58,130.00
2020,03,01,09,59,130.00
2020,03,01,10,00,131.50
2020,03,01,10,01,132.00
2020,03,01,10,02,130.00
2020,03,01,10,03,129.60
2020,03,01,10,04,128.00
2020,03,01,10,05,128.00
2020,03,01,10,06,128.00
2020,03,01,10,07,129.50
2020,03,01,10,08,131.70
2020,03,01,10,09,134.00
2020,03,01,10,10,133.50
2020,03,01,10,11,131.20
2020,03,01,10,12,128.60
2020,03,01,10,13,124.50
2020,03,01,10,14,121.50
2020,03,01,10,15,120.10
2020,03,01,10,16,120.00
2020,03,01,10,17,120.30
2020,03,01,10,18,121.80
2020,03,01,10,19,124.00
2020,03,01,10,20,125.00
2020,03,01,10,21,126.50
2020,03,01,10,22,127.00
2020,03,01,10,23,128.20
2020,03,01,10,24,130.90
2020,03,01,10,25,135.20
2020,03,01,10,26,138.00
2020,03,01,10,27,140.20
2020,03,01,10,28,141.70
2020,03,01,10,29,145.50
2020,03,01,10,30,148.00
2020,03,01,10,31,148.00
2020,03,01,10,32,148.00
2020,03,01,10,33,147.00
2020,03,01,10,34,144.80
2020,03,01,10,35,142.50
2020,03,01,10,36,142.00
2020,03,01,10,37,142.00
2020,03,01,10,38,142.40
2020,03,01,10,39,144.70
2020,03,01,10,40,146.00
2020,03,01,10,41,146.00
2020,03,01,10,42,146.00
2020,03,01,10,43,146.00
2020,03,01,10,44,143.70
2020,03,01,10,45,140.50
2020,03,01,10,46,137.60
2020,03,01,10,47,135.00
2020,03,01,10,48,134.40
2020,03,01,10,49,134.00
2020,03,01,10,50,134.00
2020,03,01,10,51,134.00
2020,03,01,10,52,133.50
2020,03,01,10,53,132.00
2020,03,01,10,54,131.00
2020,03,01,10,55,130.00
2020,03,01,10,56,128.50
2020,03,01,10,57,127.10
2020,03,01,10,58,122.70
2020,03,01,10,59,119.50
2020,03,01,11,00,118.70
2020,03,01,11,01,120.50
2020,03,01,11,02,122.20
2020,03,01,11,03,125.90
2020,03,01,11,04,129.60
2020,03,01,11,05,134.10
2020,03,01,11,06,135.50
2020,03,01,11,07,137.00
2020,03,01,11,08,137.00
2020,03,01,11,09,137.00
2020,03,01,11,10,137.00
2020,03,01,11,11,137.00
2020,03,01,11,12,137.20
2020,03,01,11,13,139.70
2020,03,01,11,14,143.50
2020,03,01,11,15,147.50
2020,03,01,11,16,152.70
2020,03,01,11,17,158.70
2020,03,01,11,18,166.20
2020,03,01,11,19,174.60
2020,03,01,11,20,180.30
2020,03,01,11,21,186.00
2020,03,01,11,22,189.00
2020,03,01,11,23,191.80
2020,03,01,11,24,194.50
2020,03,01,11,25,196.80
2020,03,01,11,26,199.00
2020,03,01,11,27,200.00
2020,03,01,11,28,200.00
2020,03,01,11,29,199.50
2020,03,01,11,30,199.00
2020,03,01,11,31,199.70
2020,03,01,11,32,201.80
2020,03,01,11,33,204.10
2020,03,01,11,34,206.20
2020,03,01,11,35,207.00
2020,03,01,11,36,206.50
2020,03,01,11,37,204.80
2020,03,01,11,38,200.30
2020,03,01,11,39,195.60
2020,03,01,11,40,191.60
2020,03,01,11,41,187.50
2020,03,01,11,42,185.70
2020,03,01,11,43,185.00
2020,03,01,11,44,185.00
2020,03,01,11,45,183.50
2020,03,01,11,46,183.00
2020,03,01,11,47,181.00
2020,03,01,11,48,181.90
2020,03,01,11,49,186.90
2020,03,01,11,50,192.40
2020,03,01,11,51,195.00
2020,03,01,11,52,192.80
2020,03,01,11,53,190.20
2020,03,01,11,54,192.60
2020,03,01,11,55,199.00
2020,03,01,11,56,208.80
2020,03,01,11,57,216.90
2020,03,01,11,58,218.80
2020,03,01,11,59,212.80
2020,03,01,12,00,201.30
2020,03,01,12,01,186.40
2020,03,01,12,02,171.30
2020,03,01,12,03,158.20
2020,03,01,12,04,146.20
2020,03,01,12,05,134.20
2020,03,01,12,06,123.30
2020,03,01,12,07,113.90
2020,03,01,12,08,105.00
2020,03,01,12,09,101.10
2020,03,01,12,10,96.90
2020,03,01,12,11,94.00
2020,03,01,12,12,91.70
2020,03,01,12,13,91.00
2020,03,01,12,14,91.00
2020,03,01,12,15,90.00
2020,03,01,12,16,90.00
2020,03,01,12,17,90.00
2020,03,01,12,18,90.50
2020,03,01,12,19,91.00
2020,03,01,12,20,91.00
2020,03,01,12,21,92.80
2020,03,01,12,22,92.80
2020,03,01,12,23,91.00
2020,03,01,12,24,90.70
2020,03,01,12,25,90.00
2020,03,01,12,26,90.60
2020,03,01,12,27,92.50
2020,03,01,12,28,93.00
2020,03,01,12,29,92.80
2020,03,01,12,30,90.70
2020,03,01,12,31,90.00
2020,03,01,12,32,90.00
2020,03,01,12,33,90.60
2020,03,01,12,34,91.00
2020,03,01,12,35,92.70
2020,03,01,12,36,95.00
2020,03,01,12,37,95.50
2020,03,01,12,38,97.00
2020,03,01,12,39,97.50
2020,03,01,12,40,98.00
2020,03,01,12,41,97.30
2020,03,01,12,42,97.00
2020,03,01,12,43,94.80
2020,03,01,12,44,92.30
2020,03,01,12,45,89.30
2020,03,01,12,46,87.00
2020,03,01,12,47,84.80
2020,03,01,12,48,84.00
2020,03,01,12,49,84.00
2020,03,01,12,50,84.00
2020,03,01,12,51,83.80
2020,03,01,12,52,82.30
2020,03,01,12,53,80.00
2020,03,01,12,54,77.80
2020,03,01,12,55,76.30
2020,03,01,12,56,74.20
2020,03,01,12,57,72.10
2020,03,01,12,58,71.50
2020,03,01,12,59,69.60
2020,03,01,13,00,68.00
2020,03,01,13,01,67.00
2020,03,01,13,02,65.50
2020,03,01,13,03,65.00
2020,03,01,13,04,65.20
2020,03,01,13,05,67.00
2020,03,01,13,06,67.70
2020,03,01,13,07,69.00
2020,03,01,13,08,69.00
2020,03,01,13,09,69.00
2020,03,01,13,10,69.90
2020,03,01,13,11,70.00
2020,03,01,13,12,70.00
2020,03,01,13,13,69.60
2020,03,01,13,14,68.00
2020,03,01,13,15,65.80
2020,03,01,13,16,63.50
2020,03,01,13,17,63.00
2020,03,01,13,18,63.20
2020,03,01,13,19,65.00
2020,03,01,13,20,64.30
2020,03,01,13,21,62.50
2020,03,01,13,22,59.50
2020,03,01,13,23,54.90
2020,03,01,13,24,53.10
2020,03,01,13,25,51.00
2020,03,01,13,26,51.00
2020,03,01,13,27,51.70
2020,03,01,13,28,53.00
2020,03,01,13,29,58.30
2020,03,01,13,30,67.10
2020,03,01,13,31,74.90
2020,03,01,13,32,81.40
2020,03,01,13,33,86.90
2020,03,01,13,34,90.00
2020,03,01,13,35,90.00
2020,03,01,13,36,87.50
2020,03,01,13,37,84.50
2020,03,01,13,38,84.00
2020,03,01,13,39,86.40
2020,03,01,13,40,91.60
2020,03,01,13,41,98.90
2020,03,01,13,42,104.50
2020,03,01,13,43,111.10
2020,03,01,13,44,116.90
2020,03,01,13,45,118.00
2020,03,01,13,46,125.00
2020,03,01,13,47,127.70
2020,03,01,13,48,131.50
2020,03,01,13,49,136.50
2020,03,01,13,50,142.10
2020,03,01,13,51,145.50
2020,03,01,13,52,146.00
2020,03,01,13,53,141.90
2020,03,01,13,54,141.00
2020,03,01,13,55,140.30
2020,03,01,13,56,139.00
2020,03,01,13,57,136.50
2020,03,01,13,58,134.30
2020,03,01,13,59,132.20
2020,03,01,14,00,131.80
2020,03,01,14,01,129.50
2020,03,01,14,02,126.90
2020,03,01,14,03,122.60
2020,03,01,14,04,116.30
2020,03,01,14,05,113.30
2020,03,01,14,06,113.00
2020,03,01,14,07,110.80
2020,03,01,14,08,107.70
2020,03,01,14,09,102.60
2020,03,01,14,10,100.00
2020,03,01,14,11,100.00
2020,03,01,14,12,98.50
2020,03,01,14,13,99.80
2020,03,01,14,14,104.60
2020,03,01,14,15,111.30
2020,03,01,14,16,120.70
2020,03,01,14,17,126.40
2020,03,01,14,18,129.20
2020,03,01,14,19,131.50
2020,03,01,14,20,130.30
2020,03,01,14,21,129.80
2020,03,01,14,22,128.00
2020,03,01,14,23,127.00
2020,03,01,14,24,124.00
2020,03,01,14,25,121.80
2020,03,01,14,26,120.30
2020,03,01,14,27,120.00
2020,03,01,14,28,120.00
2020,03,01,14,29,119.50
2020,03,01,14,30,118.00
2020,03,01,14,31,119.00
2020,03,01,14,32,120.60
2020,03,01,14,33,124.00
2020,03,01,14,34,126.80
2020,03,01,14,35,128.40
2020,03,01,14,36,132.50
2020,03,01,14,37,134.00
2020,03,01,14,38,132.00
2020,03,01,14,39,128.80
2020,03,01,14,40,128.00
2020,03,01,14,41,133.10
2020,03,01,14,42,143.30
2020,03,01,14,43,155.20
2020,03,01,14,44,165.20
2020,03,01,14,45,169.00
2020,03,01,14,46,165.20
2020,03,01,14,47,160.70
2020,03,01,14,48,160.00
2020,03,01,14,49,160.20
2020,03,01,14,50,161.50
2020,03,01,14,51,160.00
2020,03,01,14,52,161.00
2020,03,01,14,53,163.80
2020,03,01,14,54,171.70
2020,03,01,14,55,183.70
2020,03,01,14,56,195.60
2020,03,01,14,57,205.60
2020,03,01,14,58,212.90
2020,03,01,14,59,219.50
2020,03,01,15,00,226.60
2020,03,01,15,01,229.70
2020,03,01,15,02,236.00
2020,03,01,15,03,248.20
2020,03,01,15,04,250.00
2020,03,01,15,05,248.50
2020,03,01,15,06,242.60
2020,03,01,15,07,240.20
2020,03,01,15,08,261.50
2020,03,01,15,09,286.90
2020,03,01,15,10,275.10
2020,03,01,15,11,249.40
2020,03,01,15,12,237.80
2020,03,01,15,13,234.20
2020,03,01,15,14,245.60
2020,03,01,15,15,246.20
2020,03,01,15,16,217.40
2020,03,01,15,17,196.40
2020,03,01,15,18,189.10
2020,03,01,15,19,175.60
2020,03,01,15,20,163.50
2020,03,01,15,21,158.80
2020,03,01,15,22,156.50
2020,03,01,15,23,153.50
2020,03,01,15,24,147.20
2020,03,01,15,25,137.40
2020,03,01,15,26,129.40
2020,03,01,15,27,122.50
2020,03,01,15,28,117.50
2020,03,01,15,29,113.80
2020,03,01,15,30,113.00
2020,03,01,15,31,117.10
2020,03,01,15,32,128.60
2020,03,01,15,33,135.90
2020,03,01,15,34,145.00
2020,03,01,15,35,157.50
2020,03,01,15,36,168.60
2020,03,01,15,37,173.60
2020,03,01,15,38,171.70
2020,03,01,15,39,167.40
2020,03,01,15,40,160.60
2020,03,01,15,41,154.60
2020,03,01,15,42,151.80
2020,03,01,15,43,148.80
2020,03,01,15,44,148.00
2020,03,01,15,45,148.10
2020,03,01,15,46,149.90
2020,03,01,15,47,153.70
2020,03,01,15,48,155.50
2020,03,01,15,49,156.00
2020,03,01,15,50,156.00
2020,03,01,15,51,156.00
2020,03,01,15,52,155.90
2020,03,01,15,53,155.00
2020,03,01,15,54,153.50
2020,03,01,15,55,148.50
2020,03,01,15,56,144.80
2020,03,01,15,57,145.50
2020,03,01,15,58,144.30
2020,03,01,15,59,142.50
2020,03,01,16,00,146.70
2020,03,01,16,01,147.90
2020,03,01,16,02,143.50
2020,03,01,16,03,138.60
2020,03,01,16,04,134.80
2020,03,01,16,05,128.90
2020,03,01,16,06,125.00
2020,03,01,16,07,125.50
2020,03,01,16,08,128.10
2020,03,01,16,09,131.00
2020,03,01,16,10,133.30
2020,03,01,16,11,134.00
2020,03,01,16,12,134.90
2020,03,01,16,13,133.20
2020,03,01,16,14,125.70
2020,03,01,16,15,120.00
2020,03,01,16,16,116.10
2020,03,01,16,17,113.40
2020,03,01,16,18,113.00
2020,03,01,16,19,113.90
2020,03,01,16,20,112.60
2020,03,01,16,21,108.10
2020,03,01,16,22,103.10
2020,03,01,16,23,98.50
2020,03,01,16,24,94.50
2020,03,01,16,25,91.50
2020,03,01,16,26,88.30
2020,03,01,16,27,84.00
2020,03,01,16,28,83.00
2020,03,01,16,29,83.00
2020,03,01,16,30,83.50
2020,03,01,16,31,84.00
2020,03,01,16,32,84.00
2020,03,01,16,33,83.10
2020,03,01,16,34,78.70
2020,03,01,16,35,75.00
2020,03,01,16,36,71.20
2020,03,01,16,37,69.50
2020,03,01,16,38,69.60
2020,03,01,16,39,71.50
2020,03,01,16,40,72.00
2020,03,01,16,41,72.00
2020,03,01,16,42,72.50
2020,03,01,16,43,74.00
2020,03,01,16,44,74.00
2020,03,01,16,45,74.00
2020,03,01,16,46,74.00
2020,03,01,16,47,75.80
2020,03,01,16,48,77.00
2020,03,01,16,49,76.80
2020,03,01,16,50,74.50
2020,03,01,16,51,70.50
2020,03,01,16,52,66.50
2020,03,01,16,53,62.80
2020,03,01,16,54,58.50
2020,03,01,16,55,53.80
2020,03,01,16,56,50.50
2020,03,01,16,57,48.30
2020,03,01,16,58,45.50
2020,03,01,16,59,42.80
2020,03,01,17,00,40.50
2020,03,01,17,01,37.30
2020,03,01,17,02,33.00
2020,03,01,17,03,32.00
2020,03,01,17,04,31.30
2020,03,01,17,05,30.00
2020,03,01,17,06,28.80
2020,03,01,17,07,28.00
2020,03,01,17,08,28.00
2020,03,01,17,09,27.80
2020,03,01,17,10,26.00
2020,03,01,17,11,25.60
2020,03,01,17,12,24.00
2020,03,01,17,13,21.80
2020,03,01,17,14,19.50
2020,03,01,17,15,18.10
2020,03,01,17,16,15.80
2020,03,01,17,17,14.00
2020,03,01,17,18,14.00
2020,03,01,17,19,14.00
2020,03,01,17,20,14.00